H1 CPF 2 NER 2020 12 24 9 359 01 glonass116 H2 0907001 9116 36111 2020 12 24 0 0 0 2020 12 27 23 45 0 900 1 1 0 0 0 1 H9 10 0 59207 0.00000 0 637397.477 15101139.321 20539488.955 10 0 59207 900.00000 0 -1184030.805 13229430.173 21769703.085 10 0 59207 1800.00000 0 -3230016.346 11411371.417 22576827.516 10 0 59207 2700.00000 0 -5458927.178 9701321.369 22945213.850 10 0 59207 3600.00000 0 -7819729.213 8145905.216 22867742.329 10 0 59207 4500.00000 0 -10253896.267 6782198.326 22345956.878 10 0 59207 5400.00000 0 -12697644.217 5636327.184 21390032.158 10 0 59207 6300.00000 0 -15084397.026 4722545.574 20018573.453 10 0 59207 7200.00000 0 -17347382.392 4042823.528 18258253.361 10 0 59207 8100.00000 0 -19422249.442 3586965.025 16143292.332 10 0 59207 9000.00000 0 -21249599.911 3333248.246 13714792.951 10 0 59207 9900.00000 0 -22777327.529 3249560.384 11019940.791 10 0 59207 10800.00000 0 -23962668.459 3294978.116 8111087.218 10 0 59207 11700.00000 0 -24773877.442 3421726.197 5044731.791 10 0 59207 12600.00000 0 -25191459.906 3577430.697 1880424.180 10 0 59207 13500.00000 0 -25208908.888 3707570.973 -1320393.036 10 0 59207 14400.00000 0 -24832916.296 3758026.079 -4495578.010 10 0 59207 15300.00000 0 -24083050.109 3677607.424 -7583496.223 10 0 59207 16200.00000 0 -22990911.507 3420470.041 -10524216.387 10 0 59207 17100.00000 0 -21598807.664 2948300.036 -13260672.344 10 0 59207 18000.00000 0 -19957996.213 2232185.362 -15739768.267 10 0 59207 18900.00000 0 -18126575.156 1254090.352 -17913405.912 10 0 59207 19800.00000 0 -16167106.580 7871.202 -19739414.314 10 0 59207 20700.00000 0 -14144073.507 -1500211.089 -21182364.241 10 0 59207 21600.00000 0 -12121275.826 -3251502.925 -22214252.218 10 0 59207 22500.00000 0 -10159273.487 -5215496.085 -22815041.376 10 0 59207 23400.00000 0 -8312983.069 -7350870.230 -22973049.063 10 0 59207 24300.00000 0 -6629527.134 -9606997.828 -22685174.072 10 0 59207 25200.00000 0 -5146425.231 -11925850.122 -21956959.149 10 0 59207 26100.00000 0 -3890201.227 -14244226.043 -20802487.432 10 0 59207 27000.00000 0 -2875464.236 -16496212.417 -19244114.488 10 0 59207 27900.00000 0 -2104500.831 -18615774.084 -17312040.501 10 0 59207 28800.00000 0 -1567394.939 -20539366.634 -15043730.278 10 0 59207 29700.00000 0 -1242669.786 -22208463.341 -12483191.542 10 0 59207 30600.00000 0 -1098424.356 -23571891.021 -9680124.822 10 0 59207 31500.00000 0 -1093916.062 -24587877.055 -6688960.957 10 0 59207 32400.00000 0 -1181522.328 -25225721.727 -3567804.583 10 0 59207 33300.00000 0 -1308997.651 -25467025.432 -377304.046 10 0 59207 34200.00000 0 -1421930.077 -25306418.851 2820530.012 10 0 59207 35100.00000 0 -1466292.313 -24751765.129 5963534.005 10 0 59207 36000.00000 0 -1390978.583 -23823825.280 8990604.613 10 0 59207 36900.00000 0 -1150218.864 -22555400.792 11842891.517 10 0 59207 37800.00000 0 -705767.246 -20989989.500 14464945.822 10 0 59207 38700.00000 0 -28770.799 -19180011.308 16805801.381 10 0 59207 39600.00000 0 898761.058 -17184678.486 18819967.523 10 0 59207 40500.00000 0 2082949.758 -15067600.090 20468313.803 10 0 59207 41400.00000 0 3517546.791 -12894220.963 21718829.677 10 0 59207 42300.00000 0 5183960.905 -10729202.618 22547244.526 10 0 59207 43200.00000 0 7051813.135 -8633855.271 22937496.419 10 0 59207 44100.00000 0 9079997.290 -6663727.930 22882040.933 10 0 59207 45000.00000 0 11218202.293 -4866456.562 22381994.450 10 0 59207 45900.00000 0 13408833.539 -3279959.298 21447109.488 10 0 59207 46800.00000 0 15589253.737 -1931052.936 20095582.765 10 0 59207 47700.00000 0 17694250.229 -834547.370 18353699.820 10 0 59207 48600.00000 0 19658626.363 7145.558 16255323.044 10 0 59207 49500.00000 0 21419809.174 603873.809 13841232.929 10 0 59207 50400.00000 0 22920364.708 977084.647 11158335.185 10 0 59207 51300.00000 0 24110316.180 1158670.968 8258748.980 10 0 59207 52200.00000 0 24949168.189 1189374.263 5198793.897 10 0 59207 53100.00000 0 25407552.362 1116812.557 2037895.361 10 0 59207 54000.00000 0 25468425.717 993217.543 -1162570.113 10 0 59207 54900.00000 0 25127771.621 872977.292 -4340467.264 10 0 59207 55800.00000 0 24394774.162 810089.090 -7434108.528 10 0 59207 56700.00000 0 23291458.776 855630.671 -10383450.994 10 0 59207 57600.00000 0 21851814.395 1055357.266 -13131260.490 10 0 59207 58500.00000 0 20120434.000 1447526.422 -15624220.093 10 0 59207 59400.00000 0 18150730.570 2061042.917 -17813961.752 10 0 59207 60300.00000 0 16002802.932 2914002.524 -19658001.281 10 0 59207 61200.00000 0 13741040.532 4012696.549 -21120558.969 10 0 59207 62100.00000 0 11431566.687 5351119.781 -22173250.443 10 0 59207 63000.00000 0 9139626.357 6911003.498 -22795634.926 10 0 59207 63900.00000 0 6927026.650 8662373.170 -22975610.668 10 0 59207 64800.00000 0 4849735.769 10564608.828 -22709650.258 10 0 59207 65700.00000 0 2955739.485 12567965.075 -22002871.342 10 0 59207 66600.00000 0 1283243.490 14615488.564 -20868941.248 10 0 59207 67500.00000 0 -140704.371 16645254.138 -19329817.021 10 0 59207 68400.00000 0 -1301115.466 18592827.418 -17415325.309 10 0 59207 69300.00000 0 -2195448.416 20393851.805 -15162589.593 10 0 59207 70200.00000 0 -2833468.389 21986652.387 -12615315.115 10 0 59207 71100.00000 0 -3236584.270 23314748.176 -9822944.656 10 0 59207 72000.00000 0 -3436692.181 24329167.389 -6839701.088 10 0 59207 72900.00000 0 -3474574.741 24990468.533 -3723534.955 10 0 59207 73800.00000 0 -3397924.294 25270382.009 -534997.414 10 0 59207 74700.00000 0 -3259074.299 25153002.714 2663939.234 10 0 59207 75600.00000 0 -3112535.692 24635482.974 5811090.125 10 0 59207 76500.00000 0 -3012443.325 23728196.094 8845271.451 10 0 59207 77400.00000 0 -3010021.536 22454363.259 11707494.752 10 0 59207 78300.00000 0 -3151177.103 20849159.135 14342118.066 10 0 59207 79200.00000 0 -3474322.401 18958333.589 16697931.024 10 0 59207 80100.00000 0 -4008521.725 16836407.317 18729152.371 10 0 59207 81000.00000 0 -4772039.970 14544517.010 20396320.399 10 0 59207 81900.00000 0 -5771355.753 12148000.246 21667059.078 10 0 59207 82800.00000 0 -7000681.335 9713821.058 22516705.195 10 0 59207 83700.00000 0 -8442010.290 7307943.494 22928784.716 10 0 59207 84600.00000 0 -10065691.694 4992762.311 22895329.585 10 0 59207 85500.00000 0 -11831507.423 2824697.449 22417029.191 10 0 59208 0.00000 0 -13690208.073 852051.651 21503213.971 10 0 59208 900.00000 0 -15585444.041 -886780.353 20171671.495 10 0 59208 1800.00000 0 -17456011.091 -2364678.077 18448299.184 10 0 59208 2700.00000 0 -19238317.422 -3566680.152 16366599.725 10 0 59208 3600.00000 0 -20868969.233 -4490353.788 13967029.363 10 0 59208 4500.00000 0 -22287366.787 -5145633.589 11296211.350 10 0 59208 5400.00000 0 -23438202.574 -5554138.594 8406029.727 10 0 59208 6300.00000 0 -24273757.002 -5747997.421 5352620.910 10 0 59208 7200.00000 0 -24755895.329 -5768232.267 2195282.733 10 0 59208 8100.00000 0 -24857682.123 -5662771.020 -1004677.771 10 0 59208 9000.00000 0 -24564545.417 -5484172.366 -4185135.348 10 0 59208 9900.00000 0 -23874941.629 -5287160.752 -7284352.766 10 0 59208 10800.00000 0 -22800493.297 -5126076.098 -10242178.766 10 0 59208 11700.00000 0 -21365593.732 -5052346.527 -13001214.285 10 0 59208 12600.00000 0 -19606495.065 -5112091.342 -15507924.227 10 0 59208 13500.00000 0 -17569917.686 -5343955.825 -17713673.352 10 0 59208 14400.00000 0 -15311238.944 -5777269.563 -19575666.497 10 0 59208 15300.00000 0 -12892336.431 -6430606.310 -21057775.233 10 0 59208 16200.00000 0 -10379175.294 -7310806.467 -22131235.504 10 0 59208 17100.00000 0 -7839239.407 -8412503.970 -22775203.244 10 0 59208 18000.00000 0 -5338912.618 -9718178.193 -22977157.623 10 0 59208 18900.00000 0 -2940918.103 -11198729.697 -22733144.477 10 0 59208 19800.00000 0 -701921.292 -12814556.836 -22047855.283 10 0 59208 20700.00000 0 1329604.838 -14517089.297 -20934540.046 10 0 59208 21600.00000 0 3115164.304 -16250715.619 -19414755.414 10 0 59208 22500.00000 0 4627599.119 -17955025.142 -17517952.338 10 0 59208 23400.00000 0 5851970.831 -19567271.434 -15280910.590 10 0 59208 24300.00000 0 6785926.616 -21024954.731 -12747030.388 10 0 59208 25200.00000 0 7439535.397 -22268415.532 -9965494.126 10 0 59208 26100.00000 0 7834601.560 -23243330.612 -6990314.021 10 0 59208 27000.00000 0 8003485.899 -23903006.408 -3879283.826 10 0 59208 27900.00000 0 7987484.169 -24210372.951 -692854.862 10 0 59208 28800.00000 0 7834832.460 -24139593.807 2507041.491 10 0 59208 29700.00000 0 7598424.472 -23677223.547 5658201.569 10 0 59208 30600.00000 0 7333338.132 -22822863.250 8699363.412 10 0 59208 31500.00000 0 7094277.081 -21589285.781 11571402.608 10 0 59208 32400.00000 0 6933036.239 -20002024.938 14218486.114 10 0 59208 33300.00000 0 6896099.550 -18098445.238 16589161.122 10 0 59208 34200.00000 0 7022472.322 -15926331.068 18637357.325 10 0 59208 35100.00000 0 7341840.472 -13542054.047 20323283.010 10 0 59208 36000.00000 0 7873135.080 -11008395.071 21614197.630 10 0 59208 36900.00000 0 8623563.313 -8392111.889 22485046.022 10 0 59208 37800.00000 0 9588147.078 -5761353.418 22918942.392 10 0 59208 38700.00000 0 10749789.321 -3183028.154 22907495.092 10 0 59208 39600.00000 0 12079865.627 -720235.789 22450966.281 10 0 59208 40500.00000 0 13539316.769 1570131.799 21558263.765 10 0 59208 41400.00000 0 15080196.855 3639521.299 20246765.378 10 0 59208 42300.00000 0 16647612.551 5449492.735 18541979.434 10 0 59208 43200.00000 0 18181972.490 6973065.604 16477047.820 10 0 59208 44100.00000 0 19621452.907 8195581.617 14092101.236 10 0 59208 45000.00000 0 20904576.292 9115049.356 11433478.969 10 0 59208 45900.00000 0 21972795.041 9741957.971 8552828.211 10 0 59208 46800.00000 0 22772971.706 10098569.179 5506100.265 10 0 59208 47700.00000 0 23259651.594 10217718.661 2352463.216 10 0 59208 48600.00000 0 23397032.141 10141178.593 -846847.731 10 0 59208 49500.00000 0 23160546.091 9917651.462 -4029719.809 10 0 59208 50400.00000 0 22537991.719 9600480.708 -7134368.677 10 0 59208 51300.00000 0 21530162.356 9245175.650 -10100537.267 10 0 59208 52200.00000 0 20150948.449 8906855.827 -12870664.100 10 0 59208 53100.00000 0 18426907.540 8637723.063 -15390998.231 10 0 59208 54000.00000 0 16396319.777 8484668.330 -17612639.396 10 0 59208 54900.00000 0 14107767.932 8487114.536 -19492483.425 10 0 59208 55800.00000 0 11618300.733 8675186.376 -20994054.967 10 0 59208 56700.00000 0 8991255.408 9068284.514 -22088211.894 10 0 59208 57600.00000 0 6293829.326 9674124.394 -22753708.263 10 0 59208 58500.00000 0 3594500.945 10488280.502 -22977605.349 10 0 59208 59400.00000 0 960406.291 11494255.826 -22755523.136 10 0 59208 60300.00000 0 -1545221.088 12664074.394 -22091727.500 10 0 59208 61200.00000 0 -3865441.260 13959372.930 -20999051.287 10 0 59208 62100.00000 0 -5951731.812 15332946.839 -19498650.482 10 0 59208 63000.00000 0 -7765757.158 16730686.708 -17619599.616 10 0 59208 63900.00000 0 -9280710.338 18093824.956 -15398333.604 10 0 59208 64800.00000 0 -10482172.234 19361399.058 -12877946.085 10 0 59208 65700.00000 0 -11368453.051 20472828.374 -10107357.160 10 0 59208 66600.00000 0 -11950402.411 21370496.387 -7140366.198 10 0 59208 67500.00000 0 -12250696.817 22002229.619 -4034607.738 10 0 59208 68400.00000 0 -12302635.166 22323568.387 -850430.657 10 0 59208 69300.00000 0 -12148493.800 22299733.124 2350277.315 10 0 59208 70200.00000 0 -11837511.343 21907202.533 5505296.521 10 0 59208 71100.00000 0 -11423589.317 21134836.181 8553289.701 10 0 59208 72000.00000 0 -10962806.593 19984493.317 11434999.336 10 0 59208 72900.00000 0 -10510853.677 18471121.013 14094404.113 10 0 59208 73800.00000 0 -10120496.155 16622307.100 16479811.507 10 0 59208 74700.00000 0 -9839175.237 14477316.104 18544864.757 10 0 59208 75600.00000 0 -9706847.406 12085648.002 20249444.573 10 0 59208 76500.00000 0 -9754154.864 9505179.677 21560448.088 10 0 59208 77400.00000 0 -10001004.274 6799966.378 22452430.129 10 0 59208 78300.00000 0 -10455613.992 4037794.461 22908094.751 10 0 59208 79200.00000 0 -11114070.072 1287586.923 22918627.941 10 0 59208 80100.00000 0 -11960409.889 -1383230.800 22483865.415 10 0 59208 81000.00000 0 -12967230.033 -3911295.872 21612292.690 10 0 59208 81900.00000 0 -14096793.109 -6239698.150 20320877.589 10 0 59208 82800.00000 0 -15302587.140 -8320096.793 18634738.615 10 0 59208 83700.00000 0 -16531272.258 -10114476.424 16586655.581 10 0 59208 84600.00000 0 -17724933.134 -11596470.966 14216431.872 10 0 59208 85500.00000 0 -18823542.588 -12752201.138 11570120.599 10 0 59209 0.00000 0 -19767532.947 -13580592.080 8699129.580 10 0 59209 900.00000 0 -20500366.791 -14093159.102 5659221.988 10 0 59209 1800.00000 0 -20970999.515 -14313272.241 2509433.108 10 0 59209 2700.00000 0 -21136128.570 -14274931.171 -689076.967 10 0 59209 3600.00000 0 -20962135.972 -14021104.026 -3874211.329 10 0 59209 4500.00000 0 -20426640.831 -13601700.527 -6984141.944 10 0 59209 5400.00000 0 -19519596.740 -13071266.037 -9958509.363 10 0 59209 6300.00000 0 -18243887.225 -12486494.415 -12739593.038 10 0 59209 7200.00000 0 -16615393.784 -11903665.069 -15273429.401 10 0 59209 8100.00000 0 -14662533.046 -11376112.621 -17510856.148 10 0 59209 9000.00000 0 -12425281.707 -10951835.983 -19408462.762 10 0 59209 9900.00000 0 -9953729.308 -10671347.628 -20929429.173 10 0 59209 10800.00000 0 -7306218.319 -10565853.552 -22044236.843 10 0 59209 11700.00000 0 -4547148.081 -10655840.508 -22731239.008 10 0 59209 12600.00000 0 -1744532.980 -10950129.945 -22977079.468 10 0 59209 13500.00000 0 1032584.742 -11445438.616 -22776952.155 10 0 59209 14400.00000 0 3716761.221 -12126464.664 -22134696.568 10 0 59209 15300.00000 0 6244708.216 -12966496.093 -21062727.119 10 0 59209 16200.00000 0 8559676.169 -13928516.729 -19581797.414 10 0 59209 17100.00000 0 10613565.052 -14966764.008 -17720603.486 10 0 59209 18000.00000 0 12368675.900 -16028673.794 -15515232.990 10 0 59209 18900.00000 0 13799030.858 -17057131.168 -13008470.316 10 0 59209 19800.00000 0 14891207.326 -17992932.907 -10248970.371 10 0 59209 20700.00000 0 15644651.873 -18777358.187 -7290316.590 10 0 59209 21600.00000 0 16071461.426 -19354739.115 -4189981.086 10 0 59209 22500.00000 0 16195641.570 -19674922.308 -1008207.036 10 0 59209 23400.00000 0 16051873.790 -19695517.070 2193164.704 10 0 59209 24300.00000 0 15683844.391 -19383834.440 5351901.592 10 0 59209 25200.00000 0 15142206.379 -18718434.298 8406593.961 10 0 59209 26100.00000 0 14482261.169 -17690214.259 11297853.798 10 0 59209 27000.00000 0 13761458.905 -16302993.385 13969473.789 10 0 59209 27900.00000 0 13036823.762 -14573565.145 16369523.579 10 0 59209 28800.00000 0 12362413.649 -12531216.511 18451361.442 10 0 59209 29700.00000 0 11786922.120 -10216732.566 20174541.592 10 0 59209 30600.00000 0 11351524.009 -7680927.565 21505599.530 10 0 59209 31500.00000 0 11088055.848 -4982763.332 22418700.366 10 0 59209 32400.00000 0 11017607.751 -2187132.886 22896137.935 10 0 59209 33300.00000 0 11149585.960 637598.930 22928675.444 10 0 59209 34200.00000 0 11481285.356 3422195.972 22515721.465 10 0 59209 35100.00000 0 11997989.704 6099185.027 21665338.247 10 0 59209 36000.00000 0 12673595.254 8605415.024 20394082.407 10 0 59209 36900.00000 0 13471731.326 10884435.597 18726681.240 10 0 59209 37800.00000 0 14347330.650 12888597.064 16695550.922 10 0 59209 38700.00000 0 15248583.347 14580785.479 14340165.815 10 0 59209 39600.00000 0 16119192.264 15935721.483 11706291.002 10 0 59209 40500.00000 0 16900834.633 16940770.018 8845092.801 10 0 59209 41400.00000 0 17535726.280 17596228.279 5812144.375 10 0 59209 42300.00000 0 17969180.128 17915081.068 2666345.829 10 0 59209 43200.00000 0 18152050.957 17922235.096 -531220.193 10 0 59209 44100.00000 0 18042962.981 17653265.559 -3718475.038 10 0 59209 45000.00000 0 17610226.017 17152728.750 -6833549.356 10 0 59209 45900.00000 0 16833359.011 16472112.693 -9815983.621 10 0 59209 46800.00000 0 15704156.221 15667512.838 -12607900.396 10 0 59209 47700.00000 0 14227250.617 14797131.273 -15155125.497 10 0 59209 48600.00000 0 12420150.073 13918705.117 -17408236.401 10 0 59209 49500.00000 0 10312744.001 13086972.524 -19323517.879 10 0 59209 50400.00000 0 7946300.153 12351282.861 -20863806.600 10 0 59209 51300.00000 0 5371992.497 11753451.445 -21999208.899 10 0 59209 52200.00000 0 2649020.332 11325948.724 -22707678.295 10 0 59209 53100.00000 0 -157604.077 11090499.770 -22975442.001 10 0 59209 54000.00000 0 -2979508.656 11057152.699 -22797268.514 10 0 59209 54900.00000 0 -5747554.748 11223855.071 -22176571.242 10 0 59209 55800.00000 0 -8394463.821 11576556.165 -21125346.055 10 0 59209 56700.00000 0 -10857369.664 12089831.066 -19663943.649 10 0 59209 57600.00000 0 -13080191.015 12728000.707 -17820680.589 10 0 59209 58500.00000 0 -15015726.687 13446701.242 -15631295.893 10 0 59209 59400.00000 0 -16627386.667 14194837.126 -13138262.987 10 0 59209 60300.00000 0 -17890487.556 14916835.984 -10389969.598 10 0 59209 61200.00000 0 -18793058.648 15555110.407 -7439781.045 10 0 59209 62100.00000 0 -19336125.380 16052622.728 -4345004.708 10 0 59209 63000.00000 0 -19533458.729 16355444.185 -1165775.672 10 0 59209 63900.00000 0 -19410801.552 16415199.772 2036114.527 10 0 59209 64800.00000 0 -19004605.054 16191294.681 5198422.932 10 0 59209 65700.00000 0 -18360329.255 15652827.252 8259669.977 10 0 59209 66600.00000 0 -17530379.878 14780106.564 11160339.666 10 0 59209 67500.00000 0 -16571769.441 13565709.483 13844041.192 10 0 59209 68400.00000 0 -15543601.976 12015031.446 16258608.829 10 0 59209 69300.00000 0 -14504488.141 10146306.746 18357118.250 10 0 59209 70200.00000 0 -13510000.211 7990096.461 20098799.379 10 0 59209 71100.00000 0 -12610274.529 5588264.550 21449828.077 10 0 59209 72000.00000 0 -11847862.492 2992484.183 22383981.468 10 0 59209 72900.00000 0 -11255920.424 262335.940 22883144.581 10 0 59209 73800.00000 0 -10856814.168 -2536923.570 22937658.906 10 0 59209 74700.00000 0 -10661196.662 -5336830.341 22546506.542 10 0 59209 75600.00000 0 -10667596.753 -8068316.897 21717326.721 10 0 59209 76500.00000 0 -10862535.983 -10664343.959 20466264.678 10 0 59209 77400.00000 0 -11221167.926 -13062451.152 18817655.889 10 0 59209 78300.00000 0 -11708412.702 -15207121.494 16803551.852 10 0 59209 79200.00000 0 -12280538.523 -17051862.185 14463096.453 10 0 59209 80100.00000 0 -12887123.322 -18560915.847 11841764.927 10 0 59209 81000.00000 0 -13473313.517 -19710531.868 8990480.016 10 0 59209 81900.00000 0 -13982284.380 -20489745.769 5964622.338 10 0 59209 82800.00000 0 -14357797.950 -20900634.998 2822954.250 10 0 59209 83700.00000 0 -14546750.188 -20958041.538 -373521.867 10 0 59209 84600.00000 0 -14501599.517 -20688773.989 -3562748.576 10 0 59209 85500.00000 0 -14182573.831 -20130323.631 -6682818.297 10 0 59210 0.00000 0 -13559562.403 -19329149.330 -9673174.534 10 0 59210 900.00000 0 -12613611.926 -18338604.158 -12475786.295 10 0 59210 1800.00000 0 -11337964.341 -17216591.438 -15036271.915 10 0 59210 2700.00000 0 -9738589.843 -16023049.424 -17304951.721 10 0 59210 3600.00000 0 -7834194.023 -14817370.095 -19237808.610 10 0 59210 4500.00000 0 -5655696.379 -13655860.850 -20797338.486 10 0 59210 5400.00000 0 -3245201.520 -12589355.251 -21953274.607 10 0 59210 6300.00000 0 -654504.541 -11661072.777 -22683172.294 10 0 59210 7200.00000 0 2056808.316 -10904816.915 -22972843.116 10 0 59210 8100.00000 0 4823586.041 -10343586.697 -22816630.502 10 0 59210 9000.00000 0 7577575.086 -9988659.461 -22217521.581 10 0 59210 9900.00000 0 10250016.279 -9839183.062 -21187092.974 10 0 59210 10800.00000 0 12774269.735 -9882294.428 -19745291.288 10 0 59210 11700.00000 0 15088359.682 -10093759.462 -17920052.002 10 0 59210 12600.00000 0 17137334.066 -10439107.488 -15746763.469 10 0 59210 13500.00000 0 18875341.361 -10875212.625 -13267585.712 10 0 59210 14400.00000 0 20267338.459 -11352255.593 -10530636.462 10 0 59210 15300.00000 0 21290358.551 -11815983.273 -7589059.763 10 0 59210 16200.00000 0 21934286.276 -12210170.486 -4499994.827 10 0 59210 17100.00000 0 22202107.872 -12479179.670 -1323465.035 10 0 59210 18000.00000 0 22109626.080 -12570509.682 1878791.077 10 0 59210 18900.00000 0 21684652.188 -12437225.160 5044523.756 10 0 59210 19800.00000 0 20965709.647 -12040162.732 8112186.950 10 0 59210 20700.00000 0 20000304.427 -11349819.732 11022139.787 10 0 59210 21600.00000 0 18842835.623 -10347844.435 13717810.669 10 0 59210 22500.00000 0 17552234.962 -9028063.705 16146800.750 10 0 59210 23400.00000 0 16189435.270 -7397003.606 18261904.874 10 0 59210 24300.00000 0 14814774.973 -5473879.920 20022029.976 10 0 59210 25200.00000 0 13485448.111 -3290057.885 21392993.118 10 0 59210 26100.00000 0 12253107.227 -888002.876 22348183.837 10 0 59210 27000.00000 0 11161719.700 1680235.023 22869078.338 10 0 59210 27900.00000 0 10245767.122 4354940.134 22945595.992 10 0 59210 28800.00000 0 9528862.794 7070974.703 22576291.647 10 0 59210 29700.00000 0 9022844.583 9760254.144 21768380.419 10 0 59210 30600.00000 0 8727380.394 12354351.806 20537594.744 10 0 59210 31500.00000 0 8630101.982 14787125.463 18907876.605 10 0 59210 32400.00000 0 8707260.623 16997257.071 16910910.917 10 0 59210 33300.00000 0 8924876.263 18930600.759 14585508.996 10 0 59210 34200.00000 0 9240331.117 20542241.889 11976853.967 10 0 59210 35100.00000 0 9604339.917 21798182.123 9135622.594 10 0 59210 36000.00000 0 9963213.211 22676580.890 6117000.432 10 0 59210 36900.00000 0 10261317.684 23168502.099 2979609.482 10 0 59210 37800.00000 0 10443629.173 23278135.699 -215630.779 10 0 59210 38700.00000 0 10458270.055 23022485.645 -3406686.759 10 0 59210 39600.00000 0 10258923.373 22430538.135 -6531615.199 10 0 59210 40500.00000 0 9807021.235 21541945.853 -9529765.157 10 0 59210 41400.00000 0 9073614.539 20405284.114 -12342954.061 10 0 59210 42300.00000 0 8040844.576 19075952.722 -14916594.840 10 0 59210 43200.00000 0 6702953.776 17613811.984 -17200752.409 10 0 59210 44100.00000 0 5066792.203 16080652.274 -19151109.280 10 0 59210 45000.00000 0 3151797.583 14537603.246 -20729821.851 10 0 59210 45900.00000 0 989448.540 13042591.064 -21906251.337 10 0 59210 46800.00000 0 -1377787.414 11647949.697 -22657555.668 10 0 59210 47700.00000 0 -3897968.488 10398285.789 -22969131.322 10 0 59210 48600.00000 0 -6511594.175 9328685.812 -22834896.905 10 0 59210 49500.00000 0 -9153843.443 8463339.877 -22257413.152 10 0 59210 50400.00000 0 -11757043.747 7814639.240 -21247836.914 10 0 59210 51300.00000 0 -14253269.430 7382784.786 -19825709.749 10 0 59210 52200.00000 0 -16576962.529 7155922.478 -18018584.664 10 0 59210 53100.00000 0 -18667467.693 7110799.827 -15861497.579 10 0 59210 54000.00000 0 -20471376.241 7213915.580 -13396293.042 10 0 59210 54900.00000 0 -21944582.031 7423114.053 -10670816.504 10 0 59210 55800.00000 0 -23053963.367 7689556.774 -7737988.320 10 0 59210 56700.00000 0 -23778620.721 7959987.919 -4654777.061 10 0 59210 57600.00000 0 -24110618.408 8179197.449 -1481091.921 10 0 59210 58500.00000 0 -24055199.060 8292577.200 1721384.031 10 0 59210 59400.00000 0 -23630462.008 8248661.046 4890396.691 10 0 59210 60300.00000 0 -22866519.275 8001540.664 7964335.933 10 0 59210 61200.00000 0 -21804164.999 7513053.678 10883438.402 10 0 59210 62100.00000 0 -20493114.707 6754650.484 13590954.034 10 0 59210 63000.00000 0 -18989889.035 5708859.666 16034253.094 10 0 59210 63900.00000 0 -17355431.409 4370289.039 18165851.673 10 0 59210 64800.00000 0 -15652560.303 2746118.931 19944335.573 10 0 59210 65700.00000 0 -13943363.344 856065.868 21335164.637 10 0 59210 66600.00000 0 -12286642.825 -1268182.852 22311342.072 10 0 59210 67500.00000 0 -10735519.571 -3584040.989 22853936.162 10 0 59210 68400.00000 0 -9335295.215 -6039557.737 22952444.692 10 0 59210 69300.00000 0 -8121661.825 -8575351.359 22604995.425 10 0 59210 70200.00000 0 -7119333.052 -11126862.266 21818379.165 10 0 59210 71100.00000 0 -6341153.095 -13626832.440 20607915.015 10 0 59210 72000.00000 0 -5787719.788 -16007908.542 18997150.592 10 0 59210 72900.00000 0 -5447536.460 -18205260.965 17017403.051 10 0 59210 73800.00000 0 -5297685.067 -20159110.366 14707149.662 10 0 59210 74700.00000 0 -5304991.274 -21817056.803 12111279.705 10 0 59210 75600.00000 0 -5427631.485 -23136114.932 9280222.012 10 0 59210 76500.00000 0 -5617113.230 -24084370.767 6268964.933 10 0 59210 77400.00000 0 -5820544.650 -24642191.232 3135987.828 10 0 59210 78300.00000 0 -5983096.578 -24802936.460 -57875.146 10 0 59210 79200.00000 0 -6050552.583 -24573145.571 -3250616.765 10 0 59210 80100.00000 0 -5971838.691 -23972188.676 -6380260.717 10 0 59210 81000.00000 0 -5701425.329 -23031400.314 -9386064.279 10 0 59210 81900.00000 0 -5201499.457 -21792731.165 -12209696.202 10 0 59210 82800.00000 0 -4443814.670 -20306975.043 -14796366.773 10 0 59210 83700.00000 0 -3411140.574 -18631645.834 -17095888.251 10 0 59210 84600.00000 0 -2098249.625 -16828593.464 -19063645.376 10 0 59210 85500.00000 0 -512399.103 -14961458.722 -20661457.407 99